Meath Environmental Platform

Observations for Trim Market St

Time AQI Temp °C Hum % Pres Pa CO μg/m³ H₂S μg/m³ NO μg/m³ NO₂ μg/m³ O₃ μg/m³ SO₂ μg/m³ PM1 μg/m³ PM2.5 μg/m³ PM10 μg/m³
Tuesday 25 August 2026
12:36 2 32.6 32 66,238 0.02 0 1.3 21.54 80.96 0 2.14 5.95 6.55
12:35 2 32.5 32 66,233 0.09 0 1.34 19.87 74.1 0 0.71 4.32 4.76
12:24 2 31.6 34 66,127 0.26 0 1.33 18.24 72.72 0 1.43 4.74 5.22
12:23 2 31.5 35 66,100 0.22 0 1.36 23.02 76.35 0 0.71 5.25 5.77
12:22 2 31.3 35 66,092 0.24 0 1.37 24.57 72.27 0 0.71 3.62 3.99
12:21 2 31 36 66,058 0.18 0 1.35 21.83 76.95 0 0.71 4.14 4.55
12:20 2 30.7 36 66,044 0.21 0 1.36 23.7 80.57 0 0.71 3.59 3.95
12:19 2 30.5 36 66,003 0.12 0 1.36 25.04 82.41 0 2.14 6.24 6.7
12:18 2 30.3 37 65,977 0.09 0 1.3 20.98 81.55 0 1.43 5.7 5.87
12:17 2 30 37 65,974 0.06 0 1.27 20.24 72.89 0 1.43 4.09 4.49
12:16 2 29.8 37 65,941 0.02 0 1.25 22.02 86.26 0 1.43 4.6 5.05
12:15 2 29.5 38 65,937 0 0 1.22 22.17 93.76 0 0.71 3.52 3.87
12:14 2 29.3 38 65,900 0 0 1.24 18.9 74.69 0 0.71 4.04 4.44
12:13 2 29.1 38 65,882 0 0 1.27 18.34 84.84 0 1.43 4.55 5.89
12:12 2 28.8 39 65,831 0 0 1.23 19.54 88.82 0 0.71 4 4.27
12:11 2 28.6 39 65,799 0 0 1.18 19.73 83.88 0 0.71 4.52 4.97
12:09 2 28 40 65,762 0 0 1.23 15.45 90.47 0 0.71 3.42 3.76
12:08 2 27.8 40 65,742 0 0 1.17 17.71 98.66 0 0.71 4.46 4.91
12:07 2 27.5 40 65,686 0 0 1.14 16.66 86.84 0 1.43 4.98 5.12
12:06 2 27.3 41 65,649 0 0 1.11 19.8 96.43 0 1.43 4.44 5.12